[[{"header":{"parameterUnit":"m.s-1","parameterCategory":1,"la1":30.2991,"la2":30.254,"lo1":-89.0895,"lo2":-89.0444,"dy":0.0017,"dx":0.0017,"nx":28,"ny":28,"refTime":"2023-10-09T09:00:00:Z","depth":0,"parameterNumber":2,"parameterNumberName":"U-component_of_WINDS"},"data":[0,0,0,0,0,0,0,0,0,0,0,0,0,0,0,0,0,0,0,0,0,0,0,0,0,0,0,0,0,0,0,0,0,0,0,0,0,0,0,0,0,0,0,0,0,0,0,0,0,0,0,0,0,0,0,0,0,0,1.9891,1.9893,0,2.0007,2.0008,2.001,2.0011,2.001,2.0008,2.0007,2.0124,2.0129,2.0133,0,0,0,0,0,0,0,0,0,0,0,0,0,1.9668,1.9672,1.9891,1.9893,1.9894,2.0007,2.0009,2.001,2.0012,2.001,2.0008,2.0006,2.0123,2.0128,2.0134,0,0,0,0,0,0,0,0,0,0,0,0,0,1.9773,1.9674,1.9891,1.9909,1.9911,2.0007,2.0009,2.0011,2.0012,2.001,2.0007,2.0005,2.0121,2.0128,2.0134,2.022,0,0,2.0155,2.0158,0,0,0,0,0,0,0,0,1.9767,1.9781,1.9904,1.9907,1.9911,1.9993,1.9973,2.0081,2.0012,1.9974,2.0007,2.0004,2.0082,2.0092,2.0118,2.0225,2.023,2.0155,2.016,2.0162,2.0164,0,0,0,0,0,0,0,1.9759,1.9776,1.9937,1.9906,1.991,1.9909,1.9922,1.9993,2.0039,1.9977,1.9977,1.9991,2.0083,2.0112,2.0121,2.0232,2.0155,2.0161,2.0165,2.0168,2.041,2.0413,0,0,0,0,0,0,1.9749,1.977,1.9933,1.9941,1.9832,1.9915,1.9929,1.9968,2.0038,2.0046,1.9993,1.9991,2.0102,2.0113,2.0125,2.0227,2.0162,2.0169,2.0173,2.0408,2.0411,2.0414,0,0,0,0,0,0,1.9744,1.9764,1.9929,1.9855,1.9876,1.9921,1.9966,1.9972,2.0,2.005,2.0058,2.0014,2.01,2.0116,2.0195,2.0231,2.0172,2.0178,2.0405,2.0409,2.0412,2.0433,0,0,0,0,0,0,1.9738,1.9762,1.9796,1.9856,1.988,1.9998,1.9968,1.9976,2.0012,2.001,2.0072,2.008,2.01,2.0185,2.0202,2.0239,2.0183,2.0402,2.0407,2.0411,2.0429,2.0437,2.0443,0,0,0,0,0,1.973,1.9798,1.9798,1.9817,1.9924,2.0,2.0014,2.0036,2.0015,2.0049,2.008,2.0078,2.0225,2.0193,2.0212,2.0252,2.04,2.0405,2.0411,2.0426,2.0435,2.0443,0,0,0,0,0,0,1.9741,1.9806,1.9807,1.9896,1.9942,2.0,2.0043,2.0045,2.0098,2.0095,2.0119,2.0133,2.0211,2.024,2.0204,2.0337,2.031,2.0319,2.0315,2.0324,2.0331,2.0322,2.0189,0,0,0,0,0,1.9753,1.9811,1.9865,1.9938,1.9961,1.9998,2.0032,2.0045,2.0094,2.0114,2.0151,2.0198,2.0254,2.0291,2.0346,2.0434,2.0445,2.047,2.0477,2.0483,2.049,2.0535,2.0546,2.0431,2.0431,2.0431,0,0,1.9781,1.9823,1.9858,1.9941,1.9979,2.0036,2.0015,2.0077,2.0119,2.0123,2.02,2.0229,2.0282,2.0365,2.0404,2.0392,2.0524,2.049,2.0494,2.0498,2.0542,2.0552,2.0562,2.0435,2.0434,2.0434,0,0,1.9859,1.9898,1.9962,1.9999,2.0056,2.008,2.0095,2.0152,2.0171,2.0248,2.0251,2.0301,2.0399,2.0436,2.0468,2.0557,2.0556,2.0574,2.061,2.0654,2.0663,2.0671,2.07,2.071,2.0582,2.0582,2.0582,0,1.9885,1.9972,1.9994,2.0056,2.0091,2.0097,2.016,2.0196,2.0267,2.0291,2.0276,2.0397,2.0434,2.0524,2.0545,2.0572,2.0588,2.0567,2.066,2.0668,2.0676,2.0704,2.0715,2.0583,2.0583,2.0583,2.0583,0,2.0,2.006,2.0105,2.0173,2.0214,2.0276,2.0306,2.0344,2.0353,2.0377,2.0454,2.0499,2.0561,2.0584,2.0593,2.0674,2.0664,2.0655,2.0628,2.0688,2.0715,2.0726,2.0586,2.0585,2.0585,2.0584,0,0,2.0089,2.0167,2.0183,2.0212,2.0274,2.032,2.0382,2.0442,2.0473,2.0522,2.0573,2.0654,2.0644,2.068,2.0694,2.0732,2.0796,2.0717,2.0719,2.0728,2.0884,2.089,2.0902,2.0796,2.0798,2.08,2.0879,0,2.0172,2.0282,2.0302,2.0397,2.0451,2.0456,2.0509,2.0551,2.0576,2.0624,2.0651,2.0706,2.0691,2.0712,2.0751,2.078,2.0827,2.0775,2.0841,2.0843,2.0826,2.0916,2.0923,2.0995,2.089,2.0891,2.0893,0,2.0283,2.0333,2.0433,2.0485,2.0508,2.0556,2.0611,2.0659,2.0706,2.072,2.0759,2.0768,2.0829,2.08,2.0885,2.0849,2.0877,2.0895,2.0898,2.0904,2.087,2.0922,2.1019,2.1029,2.091,2.0908,2.0907,0,2.0335,2.0427,2.0498,2.0524,2.0586,2.0619,2.0646,2.0692,2.0726,2.0774,2.0796,2.0851,2.0881,2.0923,2.0945,2.0923,2.1027,2.1,2.1039,2.1038,2.1059,2.1057,2.116,2.1081,2.1081,2.1081,2.108,0,2.0424,2.0484,2.0522,2.0565,2.0632,2.0654,2.0719,2.0746,2.0786,2.0833,2.0841,2.0885,2.0913,2.0961,2.0979,2.1044,2.1058,2.107,2.1073,2.1068,2.1066,2.1086,2.108,2.1084,2.1083,2.1082,2.1082,0,2.0492,2.052,2.0597,2.0649,2.0664,2.071,2.0754,2.0795,2.0819,2.0878,2.0894,2.093,2.0986,2.1013,2.1083,2.1094,2.1168,2.1169,2.1151,2.1152,2.1188,2.1183,2.1306,2.1321,2.1234,2.1234,2.1235,0,2.0546,2.0593,2.0649,2.0681,2.0709,2.0761,2.0795,2.0818,2.0853,2.0909,2.0943,2.1,2.1046,2.1135,2.1167,2.1219,2.1221,2.126,2.1229,2.122,2.1218,2.1214,2.1217,2.1265,2.1266,2.1266,2.1267,0,2.0638,2.0649,2.0699,2.0752,2.0792,2.0836,2.0878,2.0904,2.0933,2.0972,2.1029,2.1065,2.1135,2.119,2.1244,2.1271,2.1273,2.1276,2.1288,2.1282,2.1268,2.1273,2.1164,2.1273,2.1273,2.1272,2.1272,2.1272,2.07,2.074,2.0785,2.0838,2.0872,2.0911,2.0952,2.0979,2.1027,2.1086,2.1097,2.1156,2.12,2.1273,2.1301,2.1347,2.1338,2.1355,2.1359,2.1362,2.1363,2.1262,2.1358,2.1358,2.1357,2.1357,2.1357,0,2.079,2.0818,2.0868,2.0926,2.0967,2.0966,2.1012,2.1047,2.1099,2.114,2.1184,2.1248,2.1301,2.1336,2.1389,2.1419,2.1421,2.1431,2.1428,2.1434,2.1369,2.1353,2.1429,2.1429,2.1429,2.1429,2.1429,2.1429,2.0842,2.0908,2.0924,2.1006,2.1034,2.1093,2.1119,2.1153,2.1185,2.1256,2.13,2.1322,2.136,2.1415,2.1462,2.1471,2.1489,2.15,2.1508,2.1447,2.1439,2.1432,2.1417,2.1504,2.1504,2.1569,2.1569,2.157]},{"header":{"parameterUnit":"m.s-1","parameterCategory":1,"la1":30.2991,"la2":30.254,"lo1":-89.0895,"lo2":-89.0444,"dy":0.0017,"dx":0.0017,"nx":28,"ny":28,"refTime":"2023-10-09T09:00:00:Z","depth":0,"parameterNumber":3,"parameterNumberName":"V-component_of_WINDS"},"data":[0,0,0,0,0,0,0,0,0,0,0,0,0,0,0,0,0,0,0,0,0,0,0,0,0,0,0,0,0,0,0,0,0,0,0,0,0,0,0,0,0,0,0,0,0,0,0,0,0,0,0,0,0,0,0,0,0,0,-0.4609,-0.4609,0,-0.457,-0.4569,-0.4569,-0.4576,-0.4577,-0.4577,-0.4578,-0.4535,-0.4533,-0.4531,0,0,0,0,0,0,0,0,0,0,0,0,0,-0.469,-0.4688,-0.4609,-0.4609,-0.4608,-0.457,-0.4569,-0.4568,-0.4576,-0.4577,-0.4578,-0.4578,-0.4535,-0.4533,-0.4531,0,0,0,0,0,0,0,0,0,0,0,0,0,-0.4653,-0.4688,-0.4609,-0.4607,-0.4607,-0.457,-0.4569,-0.4568,-0.4576,-0.4577,-0.4578,-0.4579,-0.4536,-0.4533,-0.4531,-0.4492,0,0,-0.4522,-0.4521,0,0,0,0,0,0,0,0,-0.4655,-0.465,-0.4608,-0.4608,-0.4607,-0.4579,-0.4582,-0.4543,-0.4575,-0.4587,-0.4578,-0.4579,-0.4548,-0.4545,-0.4535,-0.449,-0.4488,-0.4522,-0.452,-0.4519,-0.4518,0,0,0,0,0,0,0,-0.4658,-0.4652,-0.4594,-0.4608,-0.4607,-0.4608,-0.4604,-0.4574,-0.4562,-0.4586,-0.4587,-0.4582,-0.4548,-0.4537,-0.4534,-0.4488,-0.4522,-0.452,-0.4518,-0.4517,-0.441,-0.4409,0,0,0,0,0,0,-0.4661,-0.4654,-0.4595,-0.4592,-0.4634,-0.4606,-0.4601,-0.4587,-0.4563,-0.456,-0.4581,-0.4583,-0.4541,-0.4537,-0.4532,-0.4486,-0.4519,-0.4517,-0.4515,-0.4411,-0.441,-0.4408,0,0,0,0,0,0,-0.4663,-0.4656,-0.4596,-0.4623,-0.4616,-0.4603,-0.4587,-0.4585,-0.4575,-0.4559,-0.4556,-0.4573,-0.4542,-0.4536,-0.4502,-0.4484,-0.4515,-0.4513,-0.4412,-0.4411,-0.4409,-0.4392,0,0,0,0,0,0,-0.4665,-0.4656,-0.4642,-0.4623,-0.4614,-0.4568,-0.4586,-0.4584,-0.457,-0.4572,-0.455,-0.4547,-0.4542,-0.4506,-0.45,-0.4481,-0.4511,-0.4414,-0.4412,-0.441,-0.4394,-0.439,-0.4386,0,0,0,0,0,-0.4668,-0.4638,-0.4641,-0.4634,-0.4596,-0.4567,-0.4562,-0.4557,-0.4569,-0.4554,-0.4544,-0.4548,-0.4488,-0.4503,-0.4495,-0.4475,-0.4415,-0.4412,-0.441,-0.4396,-0.4391,-0.4386,0,0,0,0,0,0,-0.4654,-0.4636,-0.4639,-0.4602,-0.4586,-0.4568,-0.4549,-0.4552,-0.4532,-0.4534,-0.4528,-0.4524,-0.4489,-0.4479,-0.4497,-0.4437,-0.4453,-0.4448,-0.4445,-0.444,-0.4436,-0.4439,-0.4508,0,0,0,0,0,-0.4647,-0.4625,-0.461,-0.4579,-0.4571,-0.4561,-0.4548,-0.4547,-0.4529,-0.4522,-0.451,-0.4492,-0.4469,-0.4454,-0.4432,-0.4393,-0.4388,-0.4376,-0.4372,-0.4369,-0.4365,-0.4343,-0.4337,-0.4399,-0.4399,-0.4399,0,0,-0.4632,-0.4619,-0.4605,-0.4576,-0.4563,-0.454,-0.4556,-0.453,-0.4513,-0.4518,-0.4486,-0.4476,-0.4456,-0.442,-0.4403,-0.441,-0.4347,-0.4365,-0.4363,-0.4361,-0.434,-0.4334,-0.4329,-0.4398,-0.4398,-0.4398,0,0,-0.4592,-0.458,-0.4553,-0.4541,-0.4522,-0.4516,-0.451,-0.4491,-0.4485,-0.4453,-0.4456,-0.4436,-0.4396,-0.4382,-0.437,-0.4326,-0.4329,-0.4319,-0.4298,-0.4277,-0.4272,-0.4267,-0.4251,-0.4246,-0.4315,-0.4315,-0.4315,0,-0.4575,-0.4541,-0.4539,-0.4514,-0.45,-0.4506,-0.4478,-0.4466,-0.444,-0.443,-0.444,-0.4391,-0.4378,-0.4338,-0.4327,-0.4317,-0.4309,-0.432,-0.4273,-0.4268,-0.4264,-0.4249,-0.4243,-0.4314,-0.4314,-0.4314,-0.4314,0,-0.4521,-0.4497,-0.4478,-0.4454,-0.4439,-0.4413,-0.4406,-0.4391,-0.4391,-0.4384,-0.4351,-0.4336,-0.4311,-0.4301,-0.4301,-0.4261,-0.4267,-0.4274,-0.429,-0.4257,-0.4243,-0.4237,-0.4312,-0.4313,-0.4313,-0.4313,0,0,-0.447,-0.4446,-0.4439,-0.4429,-0.4409,-0.439,-0.4364,-0.4341,-0.4328,-0.431,-0.4288,-0.4255,-0.4263,-0.4248,-0.4246,-0.4228,-0.4194,-0.4238,-0.4238,-0.423,-0.415,-0.4143,-0.4136,-0.4197,-0.4196,-0.4195,-0.4151,0,-0.4428,-0.4382,-0.438,-0.4339,-0.4317,-0.4322,-0.4299,-0.4284,-0.4277,-0.4257,-0.4249,-0.4226,-0.4238,-0.4229,-0.4212,-0.4202,-0.4178,-0.4205,-0.4175,-0.4174,-0.4179,-0.4129,-0.4122,-0.4081,-0.4145,-0.4144,-0.4144,0,-0.4372,-0.4354,-0.431,-0.4294,-0.4285,-0.4265,-0.4243,-0.4225,-0.4208,-0.4204,-0.4189,-0.419,-0.4163,-0.418,-0.4142,-0.4161,-0.4149,-0.4142,-0.4141,-0.4137,-0.4156,-0.4123,-0.4068,-0.4062,-0.4135,-0.4135,-0.4136,0,-0.4338,-0.4303,-0.4273,-0.4264,-0.4244,-0.423,-0.4221,-0.4205,-0.4192,-0.4173,-0.4164,-0.4142,-0.413,-0.4113,-0.4107,-0.4121,-0.407,-0.4087,-0.4065,-0.4065,-0.4053,-0.4054,-0.3995,-0.4047,-0.4047,-0.4047,-0.4047,0,-0.4291,-0.4264,-0.4257,-0.4239,-0.4209,-0.4206,-0.4177,-0.4168,-0.4155,-0.4134,-0.4137,-0.4118,-0.4112,-0.4092,-0.4088,-0.4057,-0.4051,-0.4047,-0.4046,-0.4046,-0.4046,-0.4037,-0.4039,-0.4045,-0.4046,-0.4046,-0.4046,0,-0.4247,-0.4242,-0.4209,-0.4194,-0.419,-0.4168,-0.4155,-0.4136,-0.4131,-0.4104,-0.4098,-0.4088,-0.4064,-0.4058,-0.4029,-0.4026,-0.3989,-0.3992,-0.3995,-0.3995,-0.3974,-0.3975,-0.3906,-0.3896,-0.3955,-0.3955,-0.3954,0,-0.4217,-0.4197,-0.418,-0.4166,-0.4157,-0.4136,-0.4122,-0.412,-0.4105,-0.4085,-0.4069,-0.4046,-0.4027,-0.3988,-0.3978,-0.3956,-0.3957,-0.3934,-0.3953,-0.3954,-0.3955,-0.3956,-0.3954,-0.393,-0.3929,-0.3929,-0.3928,0,-0.4163,-0.4162,-0.4143,-0.4123,-0.4107,-0.409,-0.4075,-0.4064,-0.4059,-0.4043,-0.4019,-0.4004,-0.3975,-0.3951,-0.3929,-0.3919,-0.3922,-0.3923,-0.3916,-0.3916,-0.3918,-0.3916,-0.3984,-0.3924,-0.3924,-0.3924,-0.3925,-0.3925,-0.4125,-0.4107,-0.4093,-0.4071,-0.406,-0.4045,-0.4027,-0.402,-0.4,-0.3977,-0.3976,-0.395,-0.3934,-0.3905,-0.3894,-0.3873,-0.388,-0.3871,-0.3868,-0.3866,-0.3864,-0.3923,-0.3869,-0.3869,-0.3869,-0.3869,-0.3869,0,-0.4071,-0.4062,-0.4043,-0.4021,-0.4004,-0.4011,-0.3994,-0.3979,-0.3956,-0.3942,-0.3923,-0.3896,-0.3873,-0.3862,-0.3839,-0.3825,-0.3826,-0.3819,-0.3819,-0.3817,-0.3859,-0.3867,-0.3819,-0.3819,-0.3819,-0.3819,-0.3819,-0.3819,-0.4041,-0.4011,-0.4008,-0.3972,-0.3964,-0.3939,-0.3929,-0.3915,-0.3904,-0.3873,-0.3855,-0.3848,-0.3835,-0.3812,-0.3791,-0.3788,-0.378,-0.3772,-0.377,-0.3809,-0.3814,-0.3819,-0.3826,-0.377,-0.377,-0.3729,-0.3729,-0.3729]}]]